STARLINK-11193, 60195

Orbit data source: Space-Track

STARLINK-11193, 60195 is a payload satellite owned by SpaceX/Seattle (US) in LEO that was launched on Wed, 03 Jul 2024 UTC via an FALCON 9 launch vehicle from the Air Force Eastern Test Range (AFETR). Payloads include a variety of satellites, spacecraft, and rockets equipped with specific instruments for various scientific and technological missions. These include communications satellites like Starlink; space stations such as the ISS; scientific satellites like the Hubble; Earth observation satellites from companies like Planet Labs, Umbra, and HawkEye 360; GPS; miniature CubeSats for education and research; and military/defense satellites.

Loading next visibility...
STARLINK-11193 details
Identifier
60195, 2024-124N
Orbit
LEO
Last TLE update12 hours ago
Origin
Flag of USSpaceX/Seattle (US)
ManufacturerSpaceX/Seattle
MissionOperational Commercial Communications
Bus & MotorSTARLINK V2M, Unknown motor
Mass730 kg wet, ~700 kg dry
Launch date (UTC)
2024-07-03 (7 months ago)
Launch vehicle
FALCON 9
Launch site
Air Force Eastern Test Range (AFETR)
Object type
Payload
Rocket body
Debris
Shape & HBRBox + 2 Pan, 29 m
Radar Cross Section36.964 m², Large (>1 m²)

Expand to show TLE details & history

TLE from 12 hours ago
0 STARLINK-11193
1 60195U 24124N   25024.48192460  .00099100  00000-0  81292-3 0  9995
2 60195  53.1560  18.4791 0001022 106.9561 253.1568 15.69715189 33453
Epoch: 2025-01-24T11:33Z
Definitive object data (Epoch: 2025-01-24T11:33:58.285Z)
Latitude-0.0001°
Longitude80.94171°
Altitude360.826 km
Speed7.694 km/s
True Right ascension01h 13m 54s
True Declination0° 00' 00"
Sunlit
Object was in daylight at TLE epoch
Visualization TLE readout
Latitude-44.81978°
Longitude30.71573°
Altitude375.243 km
Speed7.684 km/s
Apparent Right ascension17h 15m 20s
Apparent Declination-67° 32' 17"
Sunlit
Object is in daylight
Visualization observer readout
Local Sidereal Time00:49:25
Azimuth209.83° SW
Elevation-45.23°
Doppler factor1
Orbital elements
Apogee altitude360.662 km
Perigee altitude359.285 km
Semi-major axis6,738.11 km
Eccentricity0.0001022
Inclination53.156°
RAAN18.4791°
Arg. of periapsis106.9561°
True anomaly253.14559°
Mean anomaly253.1568°
Eccentric anomaly253.1512°
Mean motion3.92406 °/min
BSTAR0.00081292
Orbital period91.74 mins
Loading maneuver chart data...
Loading historical data...
Loading historical data...
Loading historical data...
Loading historical data...
Loading historical data...
Loading historical data...
Loading historical data...

STARLINK-11193 Visibility forecast

Observer location: undefined°, undefined

Span
Click to sort rows by Start time (UTC) header in descending order
Start Az.
Max El. time (UTC)
Max El. Az.
Max El.
End time (UTC)
End Az.
4 mins2025-01-25 01:28:45.376Z184.704° SSW2025-01-25 01:30:45.376Z138.054° SSE21.568°2025-01-25 01:32:45.376Z84.067° E
4 mins2025-01-25 03:04:45.376Z281.571° WNW2025-01-25 03:05:45.376Z309.888° NW24.119°2025-01-25 03:08:45.376Z29.814° NE
|